Regional Weather Roundup
Issued by NWS

Home | Current Version | Previous Version | Graphics & Text | Print | Product List | Glossary On
Versions: 1 2 3 4 5 6 7 8 9 10 11 12 13 14 15 16 17 18 19 20 21 22 23 24 25 26 27 28 29 30 31 32 33 34 35 36 37 38 39 40 41 42 43 44 45 46 47 48 49 50
549
ASUS43 KTOP 211559
RWRKS

WEATHER ROUNDUP FOR KANSAS
NATIONAL WEATHER SERVICE GOODLAND KS
1100 AM CDT THU MAY 21 2015

NOTE:  "FAIR" INDICATES FEW OR NO CLOUDS BELOW 12,000 FEET WITH NO
SIGNIFICANT WEATHER AND/OR OBSTRUCTIONS TO VISIBILITY.

KSZ001>006-013>018-027>032-041>047-211700-
NORTHWEST KANSAS

CITY           SKY/WX    TMP DP  RH WIND       PRES   REMARKS
GOODLAND       CLOUDY    49  38  65 S6        30.29F
HAYS           SUNNY     54  34  47 SE3       30.32F
HILL CITY      SUNNY     55  37  50 S5        30.32F
RUSSELL        MOSUNNY   56  41  57 MISG      30.31S
$$

KSZ061>065-074>080-084>089-211700-
SOUTHWEST KANSAS

CITY           SKY/WX    TMP DP  RH WIND       PRES   REMARKS
DODGE CITY     CLOUDY    55  39  54 MISG      30.32F
ELKHART          N/A     52  40  64 SE7         N/A
GARDEN CITY    MOSUNNY   52  38  58 E3        30.30F
GREAT BEND     SUNNY     54  39  58 N5        30.32S
LIBERAL        CLOUDY    52  39  62 E6        30.33S
$$

KSZ066>073-081>083-090>101-211700-
SOUTHEAST KANSAS

CITY           SKY/WX    TMP DP  RH WIND       PRES   REMARKS
CHANUTE        MOSUNNY   58  46  64 NE10      30.29R
COFFEYVILLE    PTSUNNY   56  47  71 N8        30.29S
HUTCHINSON     SUNNY     58  40  51 NE7G17    30.30F
NEWTON         SUNNY     55  39  54 N9        30.32S
PARSONS        PTSUNNY   57  46  66 N9        30.30S
WICHITA INTL   PTSUNNY   56  42  59 N13       30.30F
WICHITA JABRA  SUNNY     56  42  59 N15       30.30S
WINFIELD       PTSUNNY   57  44  62 N9        30.31S
$$

KSZ007>012-019>026-033>040-048>060-102>105-211700-
NORTHEAST KANSAS

CITY           SKY/WX    TMP DP  RH WIND       PRES   REMARKS
CONCORDIA      SUNNY     58  40  51 VRB7      30.30F
EMPORIA        MOSUNNY   56  43  61 NE8       30.29S
LAWRENCE       SUNNY     58  43  57 N8        30.28F
MANHATTAN      SUNNY     59  40  49 VRB7      30.29F
OLATHE IND     SUNNY     56  44  64 N12       30.28F
OLATHE EXE     SUNNY     57  45  64 NE9       30.27S
SALINA         SUNNY     58  42  55 N7        30.32S
TOPEKA BILLARD SUNNY     59  43  55 MISG      30.29F
TOPEKA FORBES  SUNNY     58  41  53 N9        30.28F
$$



USA.gov is the U.S. government's official web portal to all federal, state and local government web resources and services.